DW5479 Weather Reports


Display with metric or nautical units.
time (UTC)temp
F
wind
direction
speed
MPH
gust
MPH
rain 1hr
in
rain 24hr
in
rain mn
in
humidity
%
barometer
mb
20260503221516 78 177 4.0 9.0 0.00 0.00 0.00 38 1016.9
20260503220045 78 169 5.0 10.0 0.00 0.00 0.00 37 1017.3
20260503214504 78 164 3.0 12.0 0.00 0.00 0.00 37 1017.4
20260503213032 78 143 5.0 11.0 0.00 0.00 0.00 38 1017.8
20260503211557 78 160 2.0 8.0 0.00 0.00 0.00 38 1017.8
20260503210055 78 155 3.0 8.0 0.00 0.00 0.00 41 1018.3
20260503204551 78 206 4.0 10.0 0.00 0.00 0.00 39 1018.7
20260503203047 77 160 0.0 9.0 0.00 0.00 0.00 39 1019.0
20260503201603 78 160 4.0 10.0 0.00 0.00 0.00 43 1019.2
20260503200016 77 176 0.0 7.0 0.00 0.00 0.00 41 1019.6
20260503194535 77 149 4.0 9.0 0.00 0.00 0.00 43 1019.7
20260503193052 77 146 3.0 10.0 0.00 0.00 0.00 41 1019.8
20260503191509 76 160 4.0 9.0 0.00 0.00 0.00 40 1020.0
20260503190022 76 148 4.0 11.0 0.00 0.00 0.00 44 1020.4
20260503184558 76 144 4.0 8.0 0.00 0.00 0.00 43 1020.6
20260503183046 76 158 1.0 7.0 0.00 0.00 0.00 44 1020.8
20260503181609 76 172 2.0 7.0 0.00 0.00 0.00 43 1021.1
20260503180029 75 173 3.0 7.0 0.00 0.00 0.00 44 1021.5
20260503174551 75 183 2.0 10.0 0.00 0.00 0.00 46 1021.7
20260503173131 74 172 3.0 8.0 0.00 0.00 0.00 49 1022.1
20260503171517 74 193 3.0 8.0 0.00 0.00 0.00 52 1022.2
20260503160104 73 165 2.0 7.0 0.00 0.00 0.00 52 1023.0
20260503081518 54 174 0.0 0.0 0.00 0.00 0.00 84 1020.8
20260503071522 56 188 0.0 0.0 0.00 0.00 0.00 82 1021.2
20260503060105 56 172 0.0 0.0 0.00 0.00 0.00 80 1021.3
20260503054618 56 178 0.0 0.0 0.00 0.00 0.00 80 1021.3
20260503053106 56 172 0.0 0.0 0.00 0.00 0.00 78 1021.3
20260503051525 57 191 0.0 0.0 0.00 0.00 0.00 76 1021.2
20260503050036 58 154 0.0 0.0 0.00 0.00 0.00 75 1021.2
20260503044554 59 143 0.0 1.0 0.00 0.00 0.00 74 1021.1
20260503043008 59 156 0.0 1.0 0.00 0.00 0.00 75 1021.2
20260503041532 59 175 0.0 1.0 0.00 0.00 0.00 74 1021.3
20260503040045 59 162 0.0 1.0 0.00 0.00 0.00 75 1021.3
20260503034605 57 176 0.0 1.0 0.00 0.00 0.00 79 1021.1
20260503033016 56 182 0.0 0.0 0.00 0.00 0.00 76 1021.0
20260503031537 57 183 0.0 0.0 0.00 0.00 0.00 75 1020.9
20260503030006 57 173 0.0 0.0 0.00 0.00 0.00 75 1020.7
20260503024519 58 153 0.0 0.0 0.00 0.00 0.00 73 1020.5
20260503023045 59 155 0.0 0.0 0.00 0.00 0.00 75 1020.4
20260503021554 60 161 0.0 0.0 0.00 0.00 0.00 72 1020.0
20260503020007 62 193 0.0 0.0 0.00 0.00 0.00 68 1019.7
20260503014526 63 145 0.0 0.0 0.00 0.00 0.00 65 1019.6
20260503013046 65 186 0.0 1.0 0.00 0.00 0.00 60 1019.6
20260503011500 66 188 0.0 2.0 0.00 0.00 0.00 58 1019.4
20260503010016 68 175 0.0 2.0 0.00 0.00 0.00 56 1019.3
20260503004537 69 186 1.0 4.0 0.00 0.00 0.00 53 1019.2
20260503003056 70 176 2.0 6.0 0.00 0.00 0.00 50 1019.1
20260503001511 71 193 3.0 7.0 0.00 0.00 0.00 48 1019.1
20260503000026 71 172 3.0 7.0 0.00 0.00 0.00 48 1019.1
20260502234608 71 131 3.0 7.0 0.00 0.00 0.00 47 1019.2
20260502233102 72 182 3.0 8.0 0.00 0.00 0.00 45 1019.2
20260502231512 72 184 4.0 10.0 0.00 0.00 0.00 47 1019.2
20260502230033 72 146 4.0 11.0 0.00 0.00 0.00 46 1019.1
20260502224550 72 165 4.0 10.0 0.00 0.00 0.00 44 1019.1
20260502223030 72 153 3.0 12.0 0.00 0.00 0.00 47 1019.0